Watertown, NY

6:05 PM EDT on June 23, 2017 (GMT -0400)
Watertown International

Weather History for KART - September, 2013

Change the Weather History Date:

Sunday, September 8, 2013

  Actual Average Record
Temperature  
Mean Temperature 55 °F 62 °F  
Max Temperature 68 °F 73 °F 88 °F (1964)
Min Temperature 41 °F 51 °F 32 °F (1990)
Degree Days  
Heating Degree Days 10 4  
Month to date heating degree days 35 28  
Since 1 July heating degree days 78 100  
Cooling Degree Days 0 2  
Month to date cooling degree days 17 16  
Year to date cooling degree days 450 340  
Growing Degree Days 4 (Base 50)    
Moisture  
Dew Point 48 °F    
Average Humidity 65    
Maximum Humidity 96    
Minimum Humidity 34    
Precipitation  
Precipitation 0.01 in 0.10 in 1.00 in (1987)
Month to date precipitation 0.86 0.86  
Year to date precipitation 22.66 22.66  
Sea Level Pressure  
Sea Level Pressure 29.98 in    
Wind  
Wind Speed 8 mph (NNE)    
Max Wind Speed 22 mph    
Max Gust Speed 28 mph    
Visibility 10 miles    
Events      
T = Trace of Precipitation, MM = Missing Value Source: NWS Daily Summary

Daily Weather History Graph

Daily Weather History Graph

Search for Another Location

Airport or City:

Trip Planner

Search our weather history database for the weather conditions in past years. The results will help you decide how hot, cold, wet, or windy it might be!

Date:

Astronomy

Sep. 08, 2013 Rise Set
Actual Time 6:35 AM EDT 7:26 PM EDT
Civil Twilight 6:06 AM EDT 7:56 PM EDT
Nautical Twilight 5:31 AM EDT 8:30 PM EDT
Astronomical Twilight 4:54 AM EDT 9:07 PM EDT
Moon 9:59 AM EDT (9/8) 8:51 PM EDT (9/8)
Length of Visible Light 13h 49m
Length of Day
12h 51m
Waxing Crescent, 11% of the Moon is Illuminated
Sep 8
Waxing Crescent
Sep 12
First Quarter
Sep 19
Full
Sep 26
Last Quarter
Oct 4
New

Hourly Weather History & Observations

Time (EDT) Temp. Windchill Dew Point Humidity Pressure Visibility Wind Dir Wind Speed Gust Speed Precip Events Conditions
12:32 AM 62.6 °F - 60.8 °F 94% 29.85 in 10.0 mi Calm Calm - N/A   Overcast
12:56 AM 62.1 °F - 60.1 °F 93% 29.84 in 10.0 mi Calm Calm - N/A   Overcast
1:56 AM 62.1 °F - 60.1 °F 93% 29.85 in 9.0 mi Calm Calm - N/A   Overcast
2:14 AM 62.6 °F - 60.8 °F 94% 29.85 in 6.0 mi Calm Calm - N/A   Overcast
2:56 AM 62.1 °F - 60.1 °F 93% 29.84 in 7.0 mi Calm Calm - N/A   Overcast
3:43 AM 62.6 °F - 60.8 °F 94% 29.85 in 5.0 mi Calm Calm - N/A   Overcast
3:56 AM 63.0 °F - 61.0 °F 93% 29.85 in 8.0 mi NNW 5.8 mph - N/A   Overcast
4:38 AM 62.6 °F - 57.2 °F 82% 29.88 in 10.0 mi NNE 18.4 mph 25.3 mph 0.01 in   Overcast
4:56 AM 60.1 °F - 51.1 °F 72% 29.89 in 10.0 mi North 13.8 mph 26.5 mph 0.01 in   Overcast
5:10 AM 59.0 °F - 51.8 °F 77% 29.90 in 10.0 mi North 15.0 mph 21.9 mph N/A   Overcast
5:56 AM 57.9 °F - 51.1 °F 78% 29.91 in 10.0 mi NNE 11.5 mph - N/A   Overcast
6:56 AM 57.0 °F - 48.9 °F 74% 29.94 in 10.0 mi NNE 5.8 mph - N/A   Overcast
7:56 AM 57.0 °F - 48.0 °F 72% 29.97 in 10.0 mi NNE 8.1 mph - N/A   Clear
8:56 AM 60.1 °F - 48.0 °F 64% 29.98 in 10.0 mi North 10.4 mph - N/A   Clear
9:56 AM 61.0 °F - 46.0 °F 58% 30.00 in 10.0 mi NNE 17.3 mph 21.9 mph N/A   Partly Cloudy
10:56 AM 62.1 °F - 37.9 °F 41% 30.02 in 10.0 mi North 12.7 mph - N/A   Clear
11:56 AM 64.0 °F - 37.9 °F 38% 30.02 in 10.0 mi North 17.3 mph 25.3 mph N/A   Clear
12:56 PM 66.0 °F - 37.9 °F 36% 30.04 in 10.0 mi North 15.0 mph 23.0 mph N/A   Clear
1:56 PM 66.0 °F - 37.0 °F 34% 30.04 in 10.0 mi North 16.1 mph 23.0 mph N/A   Clear
2:56 PM 66.9 °F - 37.0 °F 33% 30.03 in 10.0 mi North 12.7 mph - N/A   Clear
3:56 PM 66.9 °F - 37.9 °F 34% 30.03 in 10.0 mi North 12.7 mph - N/A   Clear
4:56 PM 66.0 °F - 39.0 °F 37% 30.04 in 10.0 mi NNE 11.5 mph - N/A   Clear
5:56 PM 64.0 °F - 39.0 °F 40% 30.06 in 10.0 mi North 11.5 mph - N/A   Clear
6:56 PM 61.0 °F - 39.9 °F 46% 30.08 in 10.0 mi NNE 5.8 mph - N/A   Clear
7:56 PM 52.0 °F - 43.0 °F 71% 30.09 in 10.0 mi NE 3.5 mph - N/A   Clear
8:56 PM 46.9 °F - 43.0 °F 86% 30.11 in 10.0 mi Calm Calm - N/A   Clear
9:56 PM 45.0 °F 42.6 °F 41.0 °F 86% 30.12 in 10.0 mi ENE 4.6 mph - N/A   Clear
10:56 PM 43.0 °F 41.3 °F 41.0 °F 93% 30.12 in 10.0 mi East 3.5 mph - N/A   Clear
11:56 PM 43.0 °F 41.3 °F 41.0 °F 93% 30.12 in 10.0 mi East 3.5 mph - N/A   Clear